Hurricane Symbol View the latest observations near Atlantic Tropical Depression Alberto.

Station HRBM4 - 9075014 - Harbor Beach, MI Image indicating link to RSS feed of recent meteorological observations for station HRBM4


Conditions at HRBM4 as of
(10:30 am EDT)
1430 GMT on 06/20/2024:
     

Click on the graph icon in the table below to see a time series plot of the last five days of that observation.

5-day plot - Wind Direction Wind Direction (WDIR): N ( 350 deg true )
5-day plot - Wind Speed Wind Speed (WSPD): 9.9 kts
5-day plot - Wind Gust Wind Gust (GST): 12.0 kts
5-day plot - Atmospheric Pressure Atmospheric Pressure (PRES):30.29 in
5-day plot - Air Temperature Air Temperature (ATMP): 63.0 °F
5-day plot - Water Temperature Water Temperature (WTMP): 58.3 °F
5-day plot - Dew Point Dew Point (DEWP): 61.0 °F
5-day plot - Wind Speed at 10 Meters Wind Speed at 10 meters (WSPD10M): 9.7 kts
5-day plot - Wind Speed at 20 Meters Wind Speed at 20 meters (WSPD20M): 11.7 kts
5-day plot -  Wind Speed, Wind Gust and Atmospheric Pressure Combined plot of Wind Speed, Gust, and Air Pressure
NOS Water Level Observation Network Water Level
Previous observations
TIME
(EDT)
5-day plot - Wind Direction
WDIR
 
5-day plot - Wind Speed
WSPD
kts
5-day plot - Wind Gust
GST
kts
5-day plot - Wave Height
WVHT
ft
5-day plot - Dominant Wave Period
DPD
sec
5-day plot - Average Wave Period
APD
sec
5-day plot - Mean Wave Direction
MWD
 
5-day plot - Atmospheric Pressure
PRES
in
5-day plot - Pressure Tendency
PTDY
in
5-day plot - Air Temperature
ATMP
°F
5-day plot - Water Temperature
WTMP
°F
5-day plot - Dew Point
DEWP
°F
5-day plot - Salinity
SAL
psu
5-day plot - Visibility
VIS
nmi
5-day plot - Tide (above MLLW)
TIDE
ft
2024-06-20 10:24 am N 8.9 11.1----30.29- 62.8 58.3 60.8---
2024-06-20 10:18 am N 7.0 8.9----30.29- 62.8 58.3 61.0---
2024-06-20 10:12 am N 7.0 8.0----30.29- 62.6 58.3 60.8---
2024-06-20 10:06 am N 6.0 8.0----30.28- 62.2 58.3 60.6---
2024-06-20 10:00 am N 7.0 8.0----30.28+0.01 62.4 58.3 61.0---
2024-06-20 09:54 am N 6.0 7.0----30.27- 62.2 58.3 61.2---
2024-06-20 09:48 am N 7.0 7.0----30.27- 62.2 58.3 61.2---
2024-06-20 09:42 am N 6.0 7.0----30.27- 61.9 58.3 61.0---
2024-06-20 09:36 am N 6.0 7.0----30.28- 61.9 58.3 61.0---
2024-06-20 09:30 amNNE 6.0 7.0----30.28- 62.1 58.3 61.2---
2024-06-20 09:24 amNNE 5.1 7.0----30.28- 61.9 58.3 61.3---
2024-06-20 09:18 am N 6.0 8.9----30.28- 61.7 58.3 61.2---
2024-06-20 09:12 am N 8.9 12.0----30.27- 61.7 58.3 61.2---
2024-06-20 09:06 am N 9.9 12.0----30.27- 61.5 58.3 61.0---
2024-06-20 09:00 am N 9.9 12.0----30.27+0.01 61.5 58.3 61.0---
2024-06-20 08:54 am N 9.9 11.1----30.27- 61.5 58.3 61.0---
2024-06-20 08:48 am N 8.9 11.1----30.27- 61.5 58.3 61.2---
2024-06-20 08:42 am N 9.9 12.0----30.27- 61.3 58.3 61.0---
2024-06-20 08:36 amNNE 9.9 11.1----30.27- 61.2 58.3 60.8---
2024-06-20 08:30 amNNE 8.0 8.9----30.27- 61.5 58.3 61.3---
2024-06-20 08:24 amNNE 8.0 8.9----30.28- 61.5 58.3 61.3---
2024-06-20 08:18 am N 5.1 6.0----30.29- 61.5 58.3 61.5---
2024-06-20 08:12 amNNE 2.9 4.1----30.29- 61.3 58.3 61.2---
2024-06-20 08:06 amNNE 1.9 5.1----30.30- 61.5 58.3 61.5---
2024-06-20 08:00 am N 5.1 6.0----30.30+0.05 61.9 58.3 61.3---
2024-06-20 07:54 am N 5.1 8.0----30.29- 62.1 58.3 60.6---
2024-06-20 07:48 amNNW 4.1 11.1----30.29- 63.3 58.3 60.6---
2024-06-20 07:42 amNNW 7.0 14.0----30.30- 64.2 58.3 61.0---
2024-06-20 07:36 amWNW 8.9 14.0----30.32- 64.6 58.3 61.3---
2024-06-20 07:30 am NW 5.1 12.0----30.30- 64.2 58.3 61.7---
2024-06-20 07:24 am N 8.9 11.1----30.28- 63.7 58.3 61.2---
2024-06-20 07:18 am N 8.0 8.9----30.27- 63.3 58.3 60.8---
2024-06-20 07:12 am N 8.0 9.9----30.27- 63.5 58.3 61.0---
2024-06-20 07:06 am N 8.0 8.9----30.27- 63.3 58.5 61.0---
2024-06-20 07:00 am N 8.0 8.9----30.27+0.02 63.3 58.5 61.2---
2024-06-20 06:54 am N 8.0 8.9----30.27- 63.3 58.5 61.2---
2024-06-20 06:48 am N 8.0 8.9----30.26- 63.1 58.5 61.0---
2024-06-20 06:42 am N 8.0 8.9----30.26- 63.1 58.5 61.2---
2024-06-20 06:36 am N 6.0 8.9----30.27- 63.0 58.5 61.0---
2024-06-20 06:30 am N 8.0 8.9----30.26- 63.0 58.5 60.8---
2024-06-20 06:24 am N 7.0 8.0----30.27- 63.1 58.5 61.0---
2024-06-20 06:18 am N 8.0 8.9----30.26- 63.0 58.5 60.8---
2024-06-20 06:12 am N 7.0 8.0----30.26- 63.1 58.5 60.8---
2024-06-20 06:06 am N 6.0 8.0----30.26- 63.1 58.3 60.8---
2024-06-20 06:00 am N 7.0 7.0----30.26+0.02 63.1 58.5 60.8---
2024-06-20 05:54 am N 6.0 8.0----30.26- 63.3 58.5 61.2---
2024-06-20 05:48 am N 7.0 8.9----30.26- 63.3 58.5 61.2---
2024-06-20 05:42 am N 7.0 8.0----30.25- 63.3 58.5 61.5---
2024-06-20 05:36 am N 7.0 9.9----30.25- 63.3 58.5 61.7---
2024-06-20 05:30 am N 8.0 9.9----30.25- 63.3 58.5 61.9---
2024-06-20 05:24 am N 7.0 8.9----30.25- 63.5 58.5 62.2---
2024-06-20 05:18 am N 8.0 9.9----30.25- 63.5 58.5 62.2---
2024-06-20 05:12 am N 8.0 8.9----30.25- 63.5 58.5 62.2---
2024-06-20 05:06 am N 8.0 8.9----30.25- 63.5 58.5 62.2---
2024-06-20 05:00 am N 7.0 8.9----30.25+0.01 63.7 58.5 62.2---
2024-06-20 04:54 am N 7.0 8.9----30.25- 63.7 58.5 62.2---
2024-06-20 04:48 am N 8.0 8.9----30.24- 63.9 58.6 62.4---
2024-06-20 04:42 am N 7.0 8.9----30.24- 63.9 58.6 62.4---
2024-06-20 04:36 am N 8.0 9.9----30.24- 64.0 58.5 62.8---
2024-06-20 04:30 am N 8.0 8.9----30.24- 64.2 58.5 62.8---
2024-06-20 04:24 am N 8.0 8.9----30.24- 64.2 58.6 63.0---
2024-06-20 04:18 am N 8.0 8.9----30.24- 64.2 58.6 63.0---
2024-06-20 04:12 am N 6.0 7.0----30.24- 64.2 58.6 63.0---
2024-06-20 04:06 am N 5.1 7.0----30.25- 64.2 58.6 63.1---
2024-06-20 04:00 am N 7.0 8.0----30.24+0.00 64.2 58.6 63.1---
2024-06-20 03:54 am N 6.0 8.9----30.25- 64.6 58.6 63.7---
2024-06-20 03:48 am N 8.0 12.0----30.25- 64.9 58.6 63.9---
2024-06-20 03:42 am N 11.1 12.0----30.25- 64.9 58.6 63.9---
2024-06-20 03:36 am N 6.0 7.0----30.24- 64.4 58.6 63.5---
2024-06-20 03:30 am N 5.1 6.0----30.24- 64.2 58.6 63.3---
2024-06-20 03:24 am N 6.0 8.9----30.24- 64.4 58.6 63.1---
2024-06-20 03:18 am N 7.0 8.0----30.24- 64.0 58.6 62.6---
2024-06-20 03:12 am N 7.0 8.0----30.24- 64.2 58.8 63.0---
2024-06-20 03:06 am N 6.0 8.0----30.24- 64.2 58.8 62.8---
2024-06-20 03:00 am N 5.1 8.0----30.24+0.01 63.7 59.0 62.2---
2024-06-20 02:54 am N 7.0 8.0----30.23- 64.4 59.0 62.8---
2024-06-20 02:48 am N 7.0 8.9----30.24- 64.9 59.0 63.1---
2024-06-20 02:42 amNNW 7.0 9.9----30.23- 65.5 59.0 63.5---
2024-06-20 02:36 am N 4.1 5.1----30.24- 66.2 59.0 64.4---
2024-06-20 02:30 amNNW 4.1 5.1----30.24- 65.7 59.0 64.0---
2024-06-20 02:24 am N 1.9 5.1----30.24- 65.3 59.0 63.9---
2024-06-20 02:18 am N 5.1 6.0----30.23- 65.3 59.2 63.3---
2024-06-20 02:12 am N 4.1 5.1----30.23- 65.5 59.2 63.5---
2024-06-20 02:06 amNNW 4.1 5.1----30.23- 65.8 59.2 63.7---
2024-06-20 02:00 am N 4.1 4.1----30.24+0.01 65.8 59.2 63.3---
2024-06-20 01:54 amNNE 2.9 5.1----30.24- 66.2 59.2 63.7---
2024-06-20 01:48 am NE 1.0 2.9----30.24- 66.4 59.2 64.0---
2024-06-20 01:42 am E 4.1 5.1----30.24- 66.0 59.2 63.1---
2024-06-20 01:36 am- 0.0 1.9----30.24- 66.9 59.2 64.4---
2024-06-20 01:30 amNNW 1.9 2.9----30.23- 66.6 59.2 64.0---
2024-06-20 01:24 amNNW 1.9 2.9----30.23- 66.7 59.4 64.0---
2024-06-20 01:18 amSSW 1.9 2.9----30.23- 66.7 59.4 64.2---
2024-06-20 01:12 amSSE 1.9 5.1----30.23- 66.0 59.4 63.5---
2024-06-20 01:06 am S 1.0 7.0----30.23- 65.1 59.4 62.8---
2024-06-20 01:00 am SE 5.1 8.0----30.24+0.02 64.8 59.5 62.1---
2024-06-20 12:54 am N 1.0 2.9----30.23- 67.5 59.5 64.2---
2024-06-20 12:48 am NE 2.9 4.1----30.23- 68.9 59.5 65.5---
2024-06-20 12:42 am NE 1.9 2.9----30.23- 68.5 59.5 65.7---
2024-06-20 12:36 amNNW 1.9 6.0----30.23- 67.8 59.5 64.6---
2024-06-20 12:30 am N 1.9 2.9----30.23- 70.2 59.4 66.7---
2024-06-20 12:24 amWNW 1.0 4.1----30.23- 69.3 59.7 66.6---
2024-06-20 12:18 amNNW 1.9 7.0----30.23- 67.6 59.7 64.6---
2024-06-20 12:12 am N 6.0 7.0----30.23- 67.5 59.7 63.3---
2024-06-20 12:06 am E 1.0 2.9----30.23- 68.4 59.7 63.9---
2024-06-20 12:00 amWNW 2.9 2.9----30.23+0.06 70.3 59.7 65.7---
2024-06-19 11:54 pm S 1.9 8.0----30.23-- 59.5----
2024-06-19 11:48 pm S 5.1 7.0----30.22-- 59.5----
2024-06-19 11:42 pmSSE 4.1 6.0----30.22-- 59.5----
2024-06-19 11:36 pmNNE 1.0 1.9----30.22-- 59.5----
2024-06-19 11:30 pmWSW 1.9 2.9----30.21-- 59.5----
2024-06-19 11:24 pm- 0.0 1.9----30.21-- 59.5----
2024-06-19 11:18 pmNNW 1.0 5.1----30.21-- 59.5----
2024-06-19 11:12 pm NW 4.1 5.1----30.22-- 59.7----
2024-06-19 11:06 pmWNW 2.9 4.1----30.22-- 59.7----
2024-06-19 11:00 pm NE 2.9 6.0----30.22+0.06- 59.7----
2024-06-19 10:54 pmNNE 5.1 6.0----30.22-- 59.7----
2024-06-19 10:48 pm- 0.0 4.1----30.22-- 59.7----
2024-06-19 10:42 pm N 4.1 5.1----30.22-- 59.7----
2024-06-19 10:36 pm N 1.0 6.0----30.22-- 59.7----
2024-06-19 10:30 pmNNE 7.0 13.0----30.22-- 59.7----
2024-06-19 10:24 pm NE 14.0 19.0----30.21-- 59.7----
2024-06-19 10:18 pm NE 17.1 21.0----30.22-- 59.7----
2024-06-19 10:12 pm N 17.1 21.0----30.22-- 59.7----
2024-06-19 10:06 pm N 21.0 31.1----30.22-- 59.7----
2024-06-19 10:00 pmWNW 11.1 15.9----30.22+0.06 82.4 59.7 70.2---
2024-06-19 09:54 pmSSW 5.1 6.0----30.19- 81.5 59.7 72.0---
2024-06-19 09:48 pm S 5.1 6.0----30.18- 80.6 59.7 71.8---
2024-06-19 09:42 pmSSW 5.1 5.1----30.18- 78.8 59.7 72.1---
2024-06-19 09:36 pm S 2.9 2.9----30.18- 73.2 59.7 67.3---
2024-06-19 09:30 pm S 4.1 4.1----30.18- 70.7 59.7 64.6---
2024-06-19 09:24 pm S 2.9 5.1----30.18- 73.8 59.7 68.0---
2024-06-19 09:18 pmSSE 4.1 5.1----30.17- 70.7 59.7 63.0---
2024-06-19 09:12 pm S 2.9 4.1----30.17- 77.4 59.7 66.7---
2024-06-19 09:06 pm S 2.9 4.1----30.17- 78.6 59.7 68.9---
2024-06-19 09:00 pmSSE 4.1 5.1----30.17+0.01 72.0 59.7 63.7---
2024-06-19 08:54 pm S 4.1 4.1----30.17- 79.0 59.7 67.5---
2024-06-19 08:48 pm S 4.1 5.1----30.16- 77.2 59.7 66.4---
2024-06-19 08:42 pm S 4.1 5.1----30.16- 80.2 59.7 68.4---
2024-06-19 08:36 pm S 4.1 5.1----30.16- 80.1 59.9 68.2---
2024-06-19 08:30 pm S 4.1 5.1----30.16- 79.7 59.9 67.5---
2024-06-19 08:24 pm S 4.1 5.1----30.16- 80.4 59.9 68.2---
2024-06-19 08:18 pm S 4.1 6.0----30.16- 81.0 59.9 68.0---
2024-06-19 08:12 pm S 5.1 7.0----30.16- 80.8 59.9 68.4---
2024-06-19 08:06 pmSSE 7.0 8.0----30.16-- 59.9----
2024-06-19 08:00 pmSSE 6.0 7.0----30.16+0.00- 59.9----
2024-06-19 07:54 pm SW 5.1 6.0----30.16- 87.4 59.9 69.8---
2024-06-19 07:48 pm SW 5.1 7.0----30.16- 87.4 60.1 69.4---
2024-06-19 07:42 pm SW 5.1 8.0----30.16- 88.0 60.1 69.3---
2024-06-19 07:36 pm SW 5.1 8.9----30.16- 88.2 60.1 69.1---
2024-06-19 07:30 pmWSW 8.0 11.1----30.16- 88.5 60.1 68.7---
2024-06-19 07:24 pmWSW 7.0 9.9----30.16- 88.3 60.1 68.5---
2024-06-19 07:18 pmWSW 7.0 11.1----30.16- 88.3 60.1 68.4---
2024-06-19 07:12 pm SW 8.9 11.1----30.16- 88.7 60.1 68.2---
2024-06-19 07:06 pmWSW 7.0 11.1----30.16- 88.2 60.1 68.5---
2024-06-19 07:00 pm SW 6.0 12.0----30.16-0.01 88.3 60.1 68.9---
2024-06-19 06:54 pm SW 8.0 14.0----30.15- 88.7 60.1 68.9---
2024-06-19 06:48 pm SW 6.0 11.1----30.15-- 60.1----
2024-06-19 06:42 pmWSW 9.9 15.9----30.15-- 60.3----
2024-06-19 06:36 pmWSW 8.0 13.0----30.16-- 60.3----
2024-06-19 06:30 pmWSW 9.9 14.0----30.16- 88.5 60.3 68.2---
2024-06-19 06:24 pm SW 9.9 14.0----30.16- 88.2 60.3 68.2---
2024-06-19 06:18 pmWSW 11.1 14.0----30.16- 88.2- 68.0---
2024-06-19 06:12 pm SW 11.1 15.0----30.16- 88.5- 68.7---
2024-06-19 06:06 pm SW 8.9 14.0----30.16- 88.2- 68.9---
2024-06-19 06:00 pm SW 8.9 12.0----30.16+0.00 88.3 60.3 69.1---
2024-06-19 05:54 pm SW 8.0 13.0----30.16- 88.5 60.3 68.7---
2024-06-19 05:48 pmWSW 9.9 12.0----30.16- 88.5 60.3 68.4---
2024-06-19 05:42 pm SW 9.9 15.0----30.16- 88.2 60.3 68.4---
2024-06-19 05:36 pm SW 8.0 15.9----30.16- 88.3 60.3 68.9---
2024-06-19 05:30 pmWSW 12.0 15.9----30.16- 88.7 60.4 68.4---
2024-06-19 05:24 pmWSW 8.9 14.0----30.16- 88.7 60.4 68.0---
2024-06-19 05:18 pm SW 12.0 18.1----30.16- 88.3 60.4 67.8---
2024-06-19 05:12 pm SW 9.9 14.0----30.16- 88.2 60.4 68.0---
2024-06-19 05:06 pm SW 9.9 14.0----30.16- 87.4 60.4 68.2---
2024-06-19 05:00 pm SW 11.1 15.0----30.16+0.00 88.3 60.4 68.2---
2024-06-19 04:54 pm SW 12.0 17.1----30.16- 88.2 60.4 68.2---
2024-06-19 04:48 pm SW 11.1 15.0----30.16- 87.8 60.4 68.0---
2024-06-19 04:42 pmWSW 11.1 15.0----30.16- 88.0 60.4 68.0---
2024-06-19 04:36 pmWSW 9.9 14.0----30.16- 88.2 60.4 68.5---
2024-06-19 04:30 pmWSW 12.0 15.0----30.16- 87.8 60.6 67.6---
2024-06-19 04:24 pmWSW 8.9 13.0----30.17- 87.4 60.4 67.6---
2024-06-19 04:18 pmWSW 12.0 15.9----30.17- 87.1 60.4 67.3---
2024-06-19 04:12 pmWSW 12.0 15.0----30.17- 87.3 60.6 67.5---
2024-06-19 04:06 pmWSW 8.0 15.0----30.17- 87.1 60.6 68.0---
2024-06-19 04:00 pmWSW 12.0 17.1----30.17+0.00 86.5 60.6 67.3---
2024-06-19 03:54 pm SW 11.1 17.1----30.17- 86.7 60.6 67.8---
2024-06-19 03:48 pmWSW 8.0 11.1----30.17- 86.2 60.6 68.9---
2024-06-19 03:42 pmWSW 8.9 15.0----30.17- 86.0 60.6 68.0---
2024-06-19 03:36 pmWSW 9.9 15.0----30.17- 86.2 60.6 67.8---
2024-06-19 03:30 pmWSW 11.1 14.0----30.17- 86.2 60.6 67.8---
2024-06-19 03:24 pm SW 9.9 15.9----30.17- 85.8 60.6 68.4---
2024-06-19 03:18 pmWSW 9.9 14.0----30.17- 86.0 60.6 68.7---
2024-06-19 03:12 pmWSW 9.9 13.0----30.16- 86.2 60.6 68.9---
2024-06-19 03:06 pmWSW 8.9 12.0----30.16- 86.4 60.6 68.5---
2024-06-19 03:00 pm SW 8.9 13.0----30.16+0.00 85.6 60.6 68.4---
2024-06-19 02:54 pm SW 11.1 14.0----30.16- 86.0 60.6 67.8---
2024-06-19 02:48 pm SW 12.0 15.9----30.16- 86.5 60.6 67.6---
2024-06-19 02:42 pmWSW 11.1 17.1----30.16- 86.7 60.6 67.3---
2024-06-19 02:36 pmWSW 14.0 19.0----30.17- 86.7 60.8 66.2---
2024-06-19 02:30 pmWSW 12.0 17.1----30.16- 86.7 60.8 67.6---
2024-06-19 02:24 pmWSW 12.0 15.9----30.16- 86.7 60.8 67.5---
2024-06-19 02:18 pmWSW 13.0 18.1----30.16- 86.2 60.8 67.5---
2024-06-19 02:12 pmWSW 9.9 14.0----30.16- 85.8 60.8 67.5---
2024-06-19 02:06 pmWSW 8.9 18.1----30.16- 85.8 60.8 67.6---
2024-06-19 02:00 pmWSW 12.0 19.0----30.16+0.01 86.0 60.8 67.1---
2024-06-19 01:54 pm SW 13.0 18.1----30.16- 85.8 60.8 67.1---
2024-06-19 01:48 pmWSW 12.0 20.0----30.16- 85.6 60.8 67.1---
2024-06-19 01:42 pmWSW 14.0 19.0----30.16- 85.5 60.8 66.9---
2024-06-19 01:36 pmWSW 12.0 15.9----30.16- 85.6 60.8 67.5---
2024-06-19 01:30 pmWSW 8.9 15.0----30.16- 85.5 60.8 68.0---
2024-06-19 01:24 pmWSW 15.0 20.0----30.17- 85.1 61.0 67.3---
2024-06-19 01:18 pm SW 15.0 20.0----30.17- 85.1 61.0 66.9---
2024-06-19 01:12 pmWSW 15.0 19.0----30.16- 85.1 61.0 67.5---
2024-06-19 01:06 pmWSW 11.1 17.1----30.16- 84.6 60.8 68.0---
2024-06-19 01:00 pm SW 12.0 20.0----30.16+0.02 84.2 60.8 67.6---
2024-06-19 12:54 pmWSW 13.0 19.0----30.17- 84.2 60.8 67.8---
2024-06-19 12:48 pmWSW 14.0 20.0----30.17- 84.4 60.8 67.8---
2024-06-19 12:42 pmWSW 12.0 20.0----30.17- 84.2 60.8 67.6---
2024-06-19 12:36 pmWSW 13.0 20.0----30.17- 84.6 60.8 67.6---
2024-06-19 12:30 pmWSW 15.9 22.9----30.17- 84.9 60.8 68.0---
2024-06-19 12:24 pm SW 14.0 17.1----30.16- 83.8 60.8 68.4---
2024-06-19 12:18 pmWSW 11.1 17.1----30.16- 83.5 60.8 68.4---
2024-06-19 12:12 pmWSW 13.0 19.0----30.16- 83.1 60.8 67.5---
2024-06-19 12:06 pmWSW 15.0 21.0----30.16- 83.5 60.8 67.3---
2024-06-19 12:00 pm SW 12.0 18.1----30.16+0.02 83.3 60.8 67.5---
2024-06-19 11:54 amWSW 14.0 17.1----30.16- 83.7 60.8 67.3---
2024-06-19 11:48 amWSW 11.1 18.1----30.16- 83.8 60.8 67.3---
2024-06-19 11:42 amWSW 15.0 19.0----30.16- 84.4 60.8 67.1---
2024-06-19 11:36 am SW 13.0 18.1----30.16- 84.6 60.8 68.0---
2024-06-19 11:30 am SW 15.0 18.1----30.16- 84.0 60.8 68.0---
2024-06-19 11:24 am SW 11.1 19.0----30.16- 83.3 60.8 68.5---
2024-06-19 11:18 amWSW 9.9 15.0----30.16- 82.6 60.8 69.3---
2024-06-19 11:12 am SW 8.0 13.0----30.16- 81.5 60.8 69.3---
2024-06-19 11:06 am SW 8.9 12.0----30.16- 81.1 60.8 69.1---
2024-06-19 11:00 am SW 9.9 13.0----30.15+0.02 81.0 60.8 68.7---
2024-06-19 10:54 amWSW 8.9 14.0----30.15- 81.1 60.8 68.7---